Weather History for Austin, TX

Change the Weather History Date:

Wednesday, February 20, 2013

  Actual Average Record
Temperature  
Mean Temperature 58 °F 56 °F  
Max Temperature 63 °F 66 °F 97 °F (1986)
Min Temperature 53 °F 46 °F 27 °F (1908)
Degree Days  
Heating Degree Days 7 10  
Month to date heating degree days 114 227  
Since 1 July heating degree days 952 1267  
Cooling Degree Days 0 1  
Month to date cooling degree days 21 15  
Year to date cooling degree days 48 24  
Growing Degree Days 8 (Base 50)    
Moisture  
Dew Point 49 °F    
Average Humidity 67    
Maximum Humidity 97    
Minimum Humidity 36    
Precipitation  
Precipitation 0.04 in 0.07 in 2.56 in (2003)
Month to date precipitation 0.36 1.43  
Year to date precipitation 3.24 3.65  
Snow  
Snow 0.00 in - - ()
Month to date snowfall 0.0  
Since 1 July snowfall T  
Snow Depth 0.00 in    
Sea Level Pressure  
Sea Level Pressure 29.88 in    
Wind  
Wind Speed 8 mph (ESE)    
Max Wind Speed 16 mph    
Max Gust Speed 23 mph    
Visibility 7 miles    
Events Rain    
T = Trace of Precipitation, MM = Missing Value Source: NWS Daily Summary

Daily Weather History Graph

Daily Weather History Graph

Search for Another Location

Airport:

Trip Planner

Search our weather history database for the weather conditions in past years. The results will help you decide how hot, cold, wet, or windy it might be!

Date:

Astronomy

Feb. 20, 2013 Rise Set
Actual Time 7:06 AM CST 6:23 PM CST
Civil Twilight 6:41 AM CST 6:47 PM CST
Nautical Twilight 6:13 AM CST 7:15 PM CST
Astronomical Twilight 5:46 AM CST 7:43 PM CST
Moon 1:58 PM CST (2/20) 3:15 AM CST (2/20)
Length of Visible Light 12h 05m
Length of Day
11h 17m
Waxing Gibbous, 76% of the Moon is Illuminated
Feb 20
Waxing Gibbous
Feb 25
Full
Mar 4
Last Quarter
Mar 11
New
Mar 19
First Quarter

Hourly Weather History & Observations

Time (CST) Temp. Dew Point Humidity Pressure Visibility Wind Dir Wind Speed Gust Speed Precip Events Conditions
12:51 AM 57.9 °F 33.1 °F 39% 30.09 in 10.0 mi ESE 8.1 mph - N/A   Overcast
1:51 AM 57.0 °F 33.1 °F 40% 30.09 in 10.0 mi ESE 8.1 mph - N/A   Overcast
2:51 AM 55.9 °F 34.0 °F 44% 30.06 in 10.0 mi SE 8.1 mph - N/A   Overcast
3:51 AM 55.9 °F 32.0 °F 40% 30.06 in 10.0 mi ESE 8.1 mph - N/A   Overcast
4:51 AM 55.0 °F 33.1 °F 43% 30.08 in 10.0 mi SE 8.1 mph - 0.00 in   Overcast
5:51 AM 54.0 °F 35.1 °F 49% 30.04 in 10.0 mi ESE 9.2 mph 16.1 mph N/A   Overcast
6:51 AM 54.0 °F 37.0 °F 53% 29.99 in 10.0 mi East 10.4 mph 19.6 mph N/A   Overcast
7:51 AM 53.1 °F 37.0 °F 55% 30.02 in 10.0 mi ESE 5.8 mph - N/A   Overcast
8:05 AM 53.1 °F 37.9 °F 57% 30.01 in 10.0 mi East 10.4 mph 16.1 mph N/A   Overcast
8:51 AM 54.0 °F 39.0 °F 57% 30.01 in 10.0 mi SE 10.4 mph 17.3 mph N/A   Overcast
9:51 AM 54.0 °F 41.0 °F 62% 30.04 in 10.0 mi East 6.9 mph - N/A   Overcast
10:51 AM 54.0 °F 44.1 °F 69% 30.00 in 10.0 mi ESE 10.4 mph 17.3 mph 0.00 in Rain Light Rain
11:51 AM 55.0 °F 46.9 °F 74% 29.97 in 10.0 mi ESE 6.9 mph 17.3 mph 0.00 in   Overcast
12:51 PM 57.0 °F 48.0 °F 72% 29.92 in 10.0 mi SE 10.4 mph 16.1 mph N/A   Overcast
1:51 PM 57.9 °F 48.9 °F 72% 29.88 in 10.0 mi ESE 3.5 mph - N/A   Overcast
2:51 PM 57.9 °F 51.1 °F 78% 29.85 in 9.0 mi Variable 5.8 mph - 0.00 in Rain Light Rain
3:51 PM 57.9 °F 55.0 °F 90% 29.84 in 5.0 mi Variable 4.6 mph - 0.01 in Rain Light Rain
4:04 PM 57.9 °F 55.0 °F 90% 29.84 in 4.0 mi East 5.8 mph - 0.00 in Rain Light Rain
4:31 PM 57.9 °F 55.9 °F 93% 29.82 in 2.5 mi Variable 4.6 mph - 0.01 in Rain Light Rain
4:51 PM 57.9 °F 55.9 °F 93% 29.81 in 2.0 mi Variable 6.9 mph - 0.01 in Rain Light Rain
4:59 PM 57.9 °F 55.9 °F 93% 29.81 in 2.0 mi East 9.2 mph - 0.00 in   Overcast
5:51 PM 59.0 °F 57.0 °F 93% 29.78 in 2.5 mi ESE 6.9 mph 17.3 mph 0.00 in   Overcast
6:02 PM 59.0 °F 57.0 °F 93% 29.79 in 4.0 mi ESE 11.5 mph 19.6 mph N/A   Overcast
6:51 PM 59.0 °F 57.0 °F 93% 29.79 in 8.0 mi East 6.9 mph - N/A   Overcast
7:51 PM 60.1 °F 57.9 °F 93% 29.76 in 7.0 mi ESE 10.4 mph 20.7 mph N/A   Overcast
8:01 PM 60.1 °F 57.9 °F 93% 29.77 in 6.0 mi ESE 6.9 mph - N/A   Overcast
8:51 PM 60.1 °F 59.0 °F 96% 29.75 in 5.0 mi ESE 10.4 mph 18.4 mph N/A   Overcast
9:48 PM 60.8 °F 59.0 °F 94% 29.72 in 2.5 mi ESE 10.4 mph 19.6 mph N/A   Overcast
9:51 PM 61.0 °F 59.0 °F 93% 29.71 in 2.5 mi ESE 9.2 mph - N/A   Overcast
9:58 PM 61.0 °F 59.0 °F 93% 29.72 in 3.0 mi ESE 10.4 mph - N/A   Overcast
10:51 PM 62.1 °F 61.0 °F 96% 29.70 in 3.0 mi SE 11.5 mph 20.7 mph 0.01 in Rain Light Rain
11:10 PM 62.1 °F 61.0 °F 96% 29.69 in 2.0 mi SE 11.5 mph 23.0 mph 0.00 in Rain Light Rain
11:51 PM 63.0 °F 61.0 °F 93% 29.67 in 1.8 mi SE 9.2 mph 18.4 mph 0.01 in Rain Light Rain